CW8504 Weather Reports


time (UTC)temp
F
wind
direction
speed
knots
gust
knots
rain 1hr
in
rain 24hr
in
rain mn
in
humidity
%
barometer
mb
20260508190907 65 231 4.3 8.7 0.00 0.00 0.00 17 1016.2
20260508190404 65 227 0.9 10.4 0.00 0.00 0.00 19 1016.3
20260508185904 65 244 1.7 5.2 0.00 0.00 0.00 18 1016.3
20260508185404 65 220 0.9 7.0 0.00 0.00 0.00 18 1016.3
20260508184904 66 228 6.1 10.4 0.00 0.00 0.00 18 1016.4
20260508184404 66 214 3.5 7.8 0.00 0.00 0.00 17 1016.3
20260508183904 66 218 5.2 10.4 0.00 0.00 0.00 17 1016.3
20260508183404 67 235 5.2 11.3 0.00 0.00 0.00 17 1016.4
20260508182407 67 212 4.3 8.7 0.00 0.00 0.00 17 1016.4
20260508180404 66 198 0.9 4.3 0.00 0.00 0.00 17 1016.7
20260508175904 67 271 0.9 5.2 0.00 0.00 0.00 18 1016.7
20260508175404 66 11 0.0 2.6 0.00 0.00 0.00 17 1016.7
20260508174404 66 268 0.0 2.6 0.00 0.00 0.00 19 1016.7
20260508173904 65 180 0.0 1.7 0.00 0.00 0.00 21 1016.8
20260508173404 65 210 0.0 2.6 0.00 0.00 0.00 20 1016.8
20260508172905 65 233 3.5 5.2 0.00 0.00 0.00 20 1016.9
20260508172403 65 256 0.0 2.6 0.00 0.00 0.00 21 1017.0
20260508171911 64 224 0.0 5.2 0.00 0.00 0.00 22 1017.1
20260508171404 64 228 0.0 0.0 0.00 0.00 0.00 22 1017.1
20260508170904 64 228 0.0 0.0 0.00 0.00 0.00 23 1017.2
20260508170403 63 230 0.0 0.0 0.00 0.00 0.00 25 1017.2
20260508165404 62 247 0.0 0.0 0.00 0.00 0.00 26 1017.2
20260508164907 62 28 0.0 0.0 0.00 0.00 0.00 31 1017.2
20260508163904 60 28 0.0 0.0 0.00 0.00 0.00 32 1017.3
20260508163404 60 30 0.0 0.0 0.00 0.00 0.00 33 1017.3
20260508162904 59 30 0.0 0.0 0.00 0.00 0.00 32 1017.4
20260508162404 59 30 0.0 0.0 0.00 0.00 0.00 33 1017.5
20260508161904 59 30 0.0 0.0 0.00 0.00 0.00 36 1017.6
20260508161404 58 30 0.0 0.0 0.00 0.00 0.00 35 1017.5
20260508160904 57 30 0.0 0.0 0.00 0.00 0.00 36 1017.6
20260508160404 57 30 0.0 0.0 0.00 0.00 0.00 38 1017.6
20260508155904 56 30 0.0 0.0 0.00 0.00 0.00 40 1017.7
20260508155404 56 30 0.0 0.0 0.00 0.00 0.00 39 1017.7
20260508154405 54 30 0.0 0.0 0.00 0.00 0.00 43 1017.8
20260508153904 54 30 0.0 0.0 0.00 0.00 0.00 43 1018.0
20260508153404 53 30 0.0 0.0 0.00 0.00 0.00 44 1017.9
20260508152404 51 30 0.0 0.0 0.00 0.00 0.00 46 1018.0
20260508151904 50 30 0.0 0.0 0.00 0.00 0.00 46 1018.1
20260508151404 49 30 0.0 0.0 0.00 0.00 0.00 47 1018.1
20260508150904 48 30 0.0 0.0 0.00 0.00 0.00 49 1018.2
20260508150404 47 30 0.0 0.0 0.00 0.00 0.00 50 1018.1
20260508145404 45 30 0.0 0.0 0.00 0.00 0.00 56 1018.2
20260508144904 44 30 0.0 0.0 0.00 0.00 0.00 58 1018.3
20260508144404 43 36 0.0 0.0 0.00 0.00 0.00 62 1018.3
20260508143404 40 194 0.0 0.0 0.00 0.00 0.00 65 1018.4
20260508142904 40 194 0.0 0.0 0.00 0.00 0.00 67 1018.5
20260508142404 39 194 0.0 0.0 0.00 0.00 0.00 68 1018.5
20260508141904 39 196 0.0 0.0 0.00 0.00 0.00 69 1018.6
20260508141404 39 196 0.0 0.0 0.00 0.00 0.00 69 1018.5
20260508140905 38 196 0.0 0.0 0.00 0.00 0.00 71 1018.5
20260508140404 38 196 0.0 0.0 0.00 0.00 0.00 72 1018.6
20260508135404 37 196 0.0 0.0 0.00 0.00 0.00 74 1018.7
20260508134904 37 196 0.0 0.0 0.00 0.00 0.00 75 1018.6
20260508134404 36 196 0.0 0.0 0.00 0.00 0.00 75 1018.7
20260508133404 34 202 0.0 0.0 0.00 0.00 0.00 76 1018.6
20260508132904 34 202 0.0 0.0 0.00 0.00 0.00 76 1018.6
20260508132404 33 202 0.0 0.0 0.00 0.00 0.00 76 1018.6
20260508131404 32 202 0.0 0.0 0.00 0.00 0.00 76 1018.6
20260508130904 32 204 0.0 0.0 0.00 0.00 0.00 75 1018.5
20260508130404 31 205 0.0 0.0 0.00 0.00 0.00 74 1018.5
20260508125911 31 204 0.0 0.0 0.00 0.00 0.00 75 1018.4
20260508125404 31 204 0.0 0.0 0.00 0.00 0.00 74 1018.3
20260508124904 31 204 0.0 0.0 0.00 0.00 0.00 74 1018.3
20260508124404 31 204 0.0 0.0 0.00 0.00 0.00 74 1018.2
20260508123904 31 204 0.0 0.0 0.00 0.00 0.00 74 1018.2
20260508123404 31 204 0.0 0.0 0.00 0.00 0.00 74 1018.2
20260508122904 31 204 0.0 0.0 0.00 0.00 0.00 74 1018.2
20260508122404 31 204 0.0 0.0 0.00 0.00 0.00 74 1018.1
20260508121904 31 204 0.0 0.0 0.00 0.00 0.00 73 1018.0
20260508121404 32 204 0.0 0.0 0.00 0.00 0.00 73 1017.9
20260508120904 32 204 0.0 0.0 0.00 0.00 0.00 73 1017.9
20260508120404 32 204 0.0 0.0 0.00 0.00 0.00 73 1017.8
20260508115904 32 204 0.0 0.0 0.00 0.00 0.00 73 1017.8
20260508115404 32 204 0.0 0.0 0.00 0.00 0.00 73 1017.8
20260508114904 32 204 0.0 0.0 0.00 0.00 0.00 73 1017.7
20260508114404 32 204 0.0 0.0 0.00 0.00 0.00 73 1017.7
20260508113404 33 204 0.0 0.0 0.00 0.00 0.00 74 1017.7
20260508112904 33 204 0.0 0.0 0.00 0.00 0.00 74 1017.6
20260508111905 33 246 0.0 0.0 0.00 0.00 0.00 73 1017.8
20260508111404 33 246 0.0 0.0 0.00 0.00 0.00 73 1017.8
20260508110904 33 246 0.0 0.0 0.00 0.00 0.00 73 1017.7
20260508110404 33 246 0.0 0.0 0.00 0.00 0.00 73 1017.8
20260508105904 33 246 0.0 0.0 0.00 0.00 0.00 73 1017.7
20260508105407 33 245 0.0 0.0 0.00 0.00 0.00 73 1017.7
20260508104904 33 245 0.0 0.0 0.00 0.00 0.00 73 1017.6
20260508104404 34 242 0.0 0.0 0.00 0.00 0.00 72 1017.6
20260508103905 34 242 0.0 0.0 0.00 0.00 0.00 72 1017.5
20260508102404 34 242 0.0 0.0 0.00 0.00 0.00 72 1017.5
20260508101904 34 242 0.0 0.0 0.00 0.00 0.00 71 1017.5
20260508100404 34 242 0.0 0.0 0.00 0.00 0.00 71 1017.4
20260508095904 35 242 0.0 0.0 0.00 0.00 0.00 70 1017.3
20260508095404 35 242 0.0 0.0 0.00 0.00 0.00 70 1017.3
20260508094904 35 242 0.0 0.0 0.00 0.00 0.00 71 1017.3
20260508094404 35 242 0.0 0.0 0.00 0.00 0.00 71 1017.2
20260508093904 35 242 0.0 0.0 0.00 0.00 0.00 70 1017.2
20260508092404 36 242 0.0 0.0 0.00 0.00 0.00 70 1017.2
20260508090904 36 242 0.0 0.0 0.00 0.00 0.00 67 1017.0
20260508090404 37 242 0.0 0.0 0.00 0.00 0.00 67 1017.1
20260508085904 37 242 0.0 0.0 0.00 0.00 0.00 67 1016.8
20260508085404 37 242 0.0 0.0 0.00 0.00 0.00 67 1016.8
20260508084904 37 242 0.0 0.0 0.00 0.00 0.00 66 1016.8
20260508084404 38 242 0.0 0.0 0.00 0.00 0.00 65 1016.8
20260508083904 38 242 0.0 0.0 0.00 0.00 0.00 65 1016.7
20260508083404 38 242 0.0 0.0 0.00 0.00 0.00 65 1016.7
20260508082904 39 242 0.0 0.0 0.00 0.00 0.00 64 1016.7
20260508082404 39 242 0.0 0.0 0.00 0.00 0.00 64 1016.7
20260508081904 39 242 0.0 0.0 0.00 0.00 0.00 64 1016.6
20260508080903 40 242 0.0 0.0 0.00 0.00 0.00 62 1016.6
20260508075904 41 242 0.0 0.0 0.00 0.00 0.00 62 1016.5
20260508075404 41 242 0.0 0.0 0.00 0.00 0.00 61 1016.5
20260508074904 41 242 0.0 0.0 0.00 0.00 0.00 61 1016.5
20260508074404 42 242 0.0 0.0 0.00 0.00 0.00 61 1016.4
20260508073905 42 242 0.0 0.0 0.00 0.00 0.00 61 1016.4
20260508073407 42 242 0.0 0.0 0.00 0.00 0.00 59 1016.4
20260508072904 42 242 0.0 0.0 0.00 0.00 0.00 57 1016.3
20260508072404 42 242 0.0 0.0 0.00 0.00 0.00 57 1016.3
20260508071904 43 242 0.0 0.0 0.00 0.00 0.00 57 1016.3
20260508070904 43 242 0.0 0.0 0.00 0.00 0.00 56 1016.3
20260508070404 44 242 0.0 0.0 0.00 0.00 0.00 56 1016.3
20260508065905 44 242 0.0 0.0 0.00 0.00 0.00 56 1016.3
20260508065404 45 242 0.0 0.0 0.00 0.00 0.00 57 1016.3
20260508064903 45 242 0.0 0.0 0.00 0.00 0.00 56 1016.3
20260508064404 45 242 0.0 0.0 0.00 0.00 0.00 56 1016.2
20260508063904 45 242 0.0 0.0 0.00 0.00 0.00 54 1016.2
20260508063404 46 242 0.0 0.0 0.00 0.00 0.00 53 1016.2
20260508062903 46 242 0.0 0.0 0.00 0.00 0.00 53 1016.2
20260508062404 46 242 0.0 0.0 0.00 0.00 0.00 53 1016.2
20260508061404 47 242 0.0 0.0 0.00 0.00 0.00 53 1016.1
20260508060904 47 242 0.0 0.0 0.00 0.00 0.00 52 1016.1
20260508060404 47 242 0.0 0.0 0.00 0.00 0.00 52 1016.0
20260508055905 47 242 0.0 0.0 0.00 0.00 0.00 52 1016.0
20260508055404 47 243 0.0 0.0 0.00 0.00 0.00 52 1016.1
20260508054904 48 243 0.0 0.0 0.00 0.00 0.00 52 1016.1
20260508053404 48 243 0.0 0.0 0.00 0.00 0.00 51 1016.0
20260508052904 48 244 0.0 0.0 0.00 0.00 0.00 51 1015.9
20260508052404 49 243 0.0 0.0 0.00 0.00 0.00 51 1016.0
20260508051405 49 278 0.0 0.0 0.00 0.00 0.00 50 1016.0
20260508050904 49 278 0.0 0.0 0.00 0.00 0.00 50 1016.0
20260508045904 50 278 0.0 0.0 0.00 0.00 0.00 49 1015.9
20260508045404 50 278 0.0 0.0 0.00 0.00 0.00 49 1016.0
20260508044904 50 278 0.0 0.0 0.00 0.00 0.00 49 1016.0
20260508044404 50 278 0.0 0.0 0.00 0.00 0.00 48 1016.0
20260508043903 50 278 0.0 0.0 0.00 0.00 0.00 48 1016.0
20260508043405 51 278 0.0 0.0 0.00 0.00 0.00 48 1016.1
20260508042904 51 278 0.0 0.0 0.00 0.00 0.00 48 1016.0
20260508042404 51 278 0.0 0.0 0.00 0.00 0.00 48 1016.0
20260508041904 51 278 0.0 0.0 0.00 0.00 0.00 47 1016.0
20260508041403 51 278 0.0 0.0 0.00 0.00 0.00 46 1015.9
20260508040404 51 278 0.0 0.0 0.00 0.00 0.00 46 1015.9
20260508035404 52 279 0.0 0.0 0.00 0.00 0.00 47 1015.9
20260508034905 52 279 0.0 0.0 0.00 0.00 0.00 47 1015.8
20260508034404 52 279 0.0 0.0 0.00 0.00 0.00 45 1015.8
20260508033404 53 279 0.0 0.0 0.00 0.00 0.00 43 1015.6
20260508032904 54 279 0.0 0.0 0.00 0.00 0.00 43 1015.6
20260508032404 54 279 0.0 0.0 0.00 0.00 0.00 43 1015.6
20260508031404 55 279 0.0 0.0 0.00 0.00 0.00 41 1015.4
20260508030904 55 279 0.0 0.0 0.00 0.00 0.00 40 1015.4
20260508030404 55 279 0.0 0.0 0.00 0.00 0.00 39 1015.4
20260508025904 55 279 0.0 0.0 0.00 0.00 0.00 39 1015.3
20260508025403 56 279 0.0 0.0 0.00 0.00 0.00 38 1015.2
20260508024904 56 279 0.0 0.0 0.00 0.00 0.00 39 1015.2
20260508024404 56 279 0.0 0.0 0.00 0.00 0.00 38 1015.2
20260508023404 56 279 0.0 0.0 0.00 0.00 0.00 37 1015.1
20260508022904 57 279 0.0 0.0 0.00 0.00 0.00 35 1015.0
20260508022404 57 262 0.0 0.0 0.00 0.00 0.00 40 1014.9
20260508021904 57 262 0.0 0.0 0.00 0.00 0.00 36 1014.8
20260508021404 58 262 0.0 0.0 0.00 0.00 0.00 34 1014.7
20260508020404 58 262 0.0 0.0 0.00 0.00 0.00 32 1014.7
20260508015904 59 262 0.0 0.0 0.00 0.00 0.00 34 1014.6
20260508015403 59 262 0.0 0.0 0.00 0.00 0.00 29 1014.7